THORAD AGENA D DEB, 4735

Orbit data source: Space-Track

THORAD AGENA D DEB, 4735 is space debris in SSO originally from a launch on Wed, 08 Apr 1970 UTC launched from the Air Force Western Test Range (AFWTR). Debris objects in space refer to the collection of defunct objects orbiting the Earth. Examples of debris include non-operational satellites, rocket bodies, and fragments generated from explosions, collisions, or faulty payload assembly.

Loading next visibility...
Identifier
4735, 1970-025CJ
Orbit
SSO
Country
Flag of USUS
Related business
Manufacturer
Unknown
Mission
Spacecraft
Bus & Motor
Unknown
Mass
Unknown
Launch date (UTC)
1970-04-08 (56 years ago)
Launch vehicle
Unknown
Launch site
Air Force Western Test Range (AFWTR)
Object type
Payload
Rocket body
Debris
Shape & HBR
Unknown shape, 0.1 m
Radar Cross Section
Small (<0.1 m²)

Expand to show TLE details & history
Last TLE update: 14 hours ago

TLE from 14 hours ago
0 THORAD AGENA D DEB
1 04735U 70025CJ  25352.94396384  .00081161  00000-0  36016-2 0  9991
2 04735  99.6143 336.7049 0007979 299.6958  60.3476 15.21201206868878
Epoch: 2025-12-18T22:39Z
TLE epoch observation values (Epoch: 2025-12-18T22:39:18.475Z)
Latitude
-0.00004°
Longitude
-90.91428°
Altitude
502.523 km
Speed
7.615 km/s
True Right ascension
22h 26m 49s
True Declination
0° 00' 00"
Sunlit
Object was in daylight at epoch
Visualization orbit readout
Latitude
Unknown
Longitude
Unknown
Altitude
Unknown
Speed
Unknown
Apparent Right ascension
Unknown
Apparent Declination
Unknown
Sunlit
N/A
Visualization observer readout
Local Sidereal Time
11:19:30
Azimuth
Unknown
Elevation
Unknown
Doppler factor
Unknown
Orbital elements
Apogee altitude
504.776 km
Perigee altitude
493.801 km
Semi-major axis
6,877.426 km
Eccentricity
0.0008
Inclination
99.6143°
RAAN
336.7049°
Arg. of periapsis
299.6958°
True anomaly
60.4271°
Mean anomaly
60.3476°
Eccentric anomaly
60.38735°
Mean motion
3.80544 °/min
Orbital period
94.6 mins
BSTAR
0.0036016
Loading maneuver chart data...
Computing Atmospheric mass density...
Loading historical data...
Loading historical data...
Loading historical data...
Loading historical data...
Loading historical data...
Loading historical data...
Loading historical data...

Documentation

Showing up to 5 results
|